CAPE
60 654 1973 1469 1495 1176 760 138 47 9 0 0 0 5 50 37 20 21 27 3 1 0 0 10 24 46 97 126 60 30 19 5 0 0 0 0 0 0 0 21 6 0 0
96 824 1867 1582 1420 1091 738 135 48 2 0 0 1 2 27 22 6 12 12 7 0 0 0 0 1 13 16 11 11 3 9 4 2 0 0 0 0 0 0 14 0 0 18
609 970 1290 1632 1527 1293 735 127 49 2 0 0 0 5 5 7 29 26 10 0 0 0 0 0 0 0 0 0 0 0 6 2 0 0 0 0 0 0 4 12 0 0 0
786 1033 1093 1762 1580 1230 545 111 42 3 0 0 0 2 12 12 12 2 22 18 0 0 0 0 0 0 0 0 0 0 0 7 0 0 0 0 0 0 0 11 11 0 0
688 824 1106 1904 1872 1411 538 143 50 15 0 0 0 2 21 36 26 31 32 16 0 0 0 0 0 0 0 0 0 0 0 0 0 0 0 0 0 0 17 17 13 9 0
327 571 1282 1943 1930 1701 1018 281 124 53 4 0 0 0 14 69 126 185 58 150 20 0 0 0 0 0 0 0 0 0 1 0 10 0 0 0 0 0 0 20 20 12 0
170 484 1512 1923 2067 1512 823 505 222 118 74 11 0 0 25 51 126 192 202 272 15 0 0 0 0 0 0 3 13 74 18 25 0 0 0 0 0 0 1 11 17 23 19
529 1029 1352 1915 1747 1366 1113 888 506 211 181 73 10 4 26 13 68 244 184 91 28 12 2 15 20 29 9 0 1 6 94 72 0 0 0 0 0 0 0 7 25 18 17
1005 1301 1306 1410 1271 1394 1412 1225 997 762 409 173 41 16 46 36 18 92 370 162 84 30 31 43 44 8 10 16 7 2 88 62 0 0 0 0 0 0 0 4 13 21 24
1096 1175 1070 931 1006 824 1018 962 789 708 554 382 178 119 109 51 28 50 163 133 87 87 89 34 10 18 30 44 39 132 76 1 0 0 0 0 0 0 22 28 7 22 18
694 699 912 764 729 720 562 653 546 461 399 308 121 58 32 0 0 1 27 53 197 83 65 87 101 146 286 180 160 136 23 0 0 0 0 0 1 31 21 46 59 59 18
141 275 411 531 411 525 530 317 268 195 197 101 55 20 6 0 0 0 5 41 112 163 232 219 284 459 309 15 0 1 3 0 0 0 0 0 8 67 106 215 497 252 162
122 124 245 356 320 396 319 194 105 76 67 36 25 14 14 0 0 0 0 0 0 0 0 3 0 0 5 6 0 0 0 0 0 0 0 0 16 51 146 240 257 212 258
62 173 147 292 301 252 205 151 52 25 11 6 18 21 0 0 0 0 0 1 2 2 20 20 3 1 0 0 0 0 0 0 0 0 0 0 0 0 35 18 171 377 503
11 189 183 180 269 141 162 53 4 2 4 0 0 0 0 4 20 10 0 0 0 0 0 0 0 0 0 0 0 0 0 0 0 0 0 0 0 0 0 0 21 42 109
0 158 152 208 193 135 110 74 38 0 0 0 2 9 6 2 4 0 0 0 0 0 0 0 0 0 0 0 0 0 0 0 0 0 0 0 0 0 0 0 0 13 39
0 28 135 213 198 193 155 65 19 19 12 0 0 0 0 0 0 0 0 0 0 0 0 0 0 0 0 0 0 0 0 0 0 0 0 0 0 0 0 0 0 0 0
0 0 13 310 182 142 122 21 0 0 0 0 0 0 0 0 0 0 0 0 0 0 0 0 0 0 0 0 0 0 0 0 0 0 0 0 0 0 0 0 0 0 0
0 0 0 174 122 47 1 0 0 0 0 0 0 0 0 0 0 0 0 0 0 0 0 0 0 0 0 0 0 0 0 0 0 0 0 0 0 0 0 0 0 0 0
0 0 0 74 0 0 0 0 0 0 0 0 0 0 0 0 0 0 0 0 0 0 0 0 0 0 0 0 0 0 0 0 0 0 0 0 0 0 0 0 0 0 0
0 0 0 0 0 0 0 0 0 0 0 0 0 0 0 0 0 0 0 0 0 0 0 0 0 0 0 0 0 0 0 0 0 0 0 0 0 0 0 0 0 0 0
0 0 0 0 0 0 0 0 0 0 0 0 0 0 0 0 0 0 0 0 0 0 0 0 0 0 0 0 0 0 0 0 0 0 0 0 0 0 0 0 0 0 0
0 0 0 0 0 0 0 0 0 0 0 0 0 0 0 0 0 0 0 0 0 0 0 0 0 0 0 0 0 0 0 0 0 0 0 0 0 0 0 0 0 0 0
0 0 0 0 0 0 0 0 0 0 0 0 0 0 0 0 0 0 0 0 0 0 0 0 0 0 0 0 0 0 0 0 0 0 0 0 0 0 0 0 0 0 0
0 0 0 0 0 0 0 0 0 0 0 0 0 0 0 0 0 0 0 0 0 0 0 0 0 0 0 0 0 0 0 0 0 0 0 0 0 0 0 0 0 0 0
0 0 0 0 0 0 0 0 0 0 0 0 0 0 0 0 0 0 0 0 0 0 0 0 0 0 0 0 0 0 0 0 0 0 0 0 0 0 0 0 0 0 0
CIN
-412 -223 -41 -49 -32 -43 -61 -187 -256 -65 0 0 0 0 -0 -1 -3 -3 -3 -5 -1 0 0 -4 -8 -146 -332 -292 -137 -1 -10 -14 0 0 0 0 0 0 0 -1 -5 0 0
-449 -183 -48 -42 -34 -46 -70 -204 -262 -52 0 0 0 0 -0 -6 -2 -1 -5 -4 0 0 0 0 -9 -8 -10 0 0 -2 -1 -17 -6 0 0 0 0 0 0 0 0 0 -0
-286 -162 -95 -40 -33 -39 -69 -200 -273 -104 0 0 0 0 -0 -0 -1 -2 -2 -0 0 0 0 0 0 0 0 0 0 0 -2 -10 0 0 0 0 0 0 0 -0 0 0 0
-262 -161 -125 -38 -33 -45 -94 -188 -260 -227 0 0 0 -0 -1 -1 0 0 -1 -2 -0 0 0 0 0 0 0 0 0 0 0 -5 0 0 0 0 0 0 0 -0 0 0 0
-273 -212 -132 -41 -22 -34 -101 -174 -228 -325 0 0 0 -1 -6 -125 -7 -7 -8 -2 0 0 0 0 0 0 0 0 0 0 0 0 0 0 0 0 0 0 0 -0 -0 -0 0
-353 -265 -108 -33 -23 -22 -61 -153 -173 -232 -323 0 0 -0 -6 -279 -196 -145 -273 -191 -422 0 0 0 0 0 0 0 0 0 -0 0 0 0 0 0 0 0 0 0 0 0 0
-396 -292 -91 -36 -13 -37 -81 -108 -157 -193 -215 -192 0 0 -334 -300 -201 -162 -169 -149 -438 -136 0 0 0 0 0 0 -0 -363 -100 -409 0 0 0 0 0 0 0 0 -0 -0 -0
-309 -181 -103 -38 -33 -48 -57 -61 -98 -166 -161 -229 -389 -418 -341 -398 -275 -124 -168 -262 -401 -508 -303 -504 -516 -474 -583 0 -0 -0 -272 -271 0 0 0 0 0 0 0 0 0 -0 0
-225 -150 -115 -74 -77 -52 -37 -46 -49 -58 -93 -176 -324 -438 -347 -375 -433 -239 -76 -168 -248 -383 -407 -396 -392 -589 -580 -483 -366 -62 -249 -262 0 0 0 0 0 0 0 0 0 -0 0
-204 -186 -170 -162 -123 -135 -82 -76 -77 -63 -74 -100 -160 -231 -276 -382 -470 -372 -172 -191 -266 -261 -265 -397 -520 -463 -412 -365 -351 -211 -252 -97 0 0 0 0 0 -1 -6 -8 -1 -6 0
-272 -279 -228 -225 -198 -178 -181 -118 -112 -110 -126 -137 -262 -386 -487 0 0 -481 -496 -377 -147 -259 -324 -265 -238 -186 -93 -159 -178 -198 -348 -8 0 0 0 0 -14 -135 -2 -2 -1 -0 -0
-434 -402 -351 -299 -302 -248 -185 -220 -217 -244 -228 -306 -391 -574 -489 0 0 0 -395 -403 -247 -171 -141 -138 -96 -28 -85 -238 0 -37 -95 -42 0 0 0 0 -27 -145 -90 -31 0 -9 -20
-407 -483 -433 -375 -360 -307 -268 -310 -347 -375 -380 -443 -520 -594 -609 0 0 0 0 0 0 0 0 -64 0 0 -92 -79 0 0 0 0 0 0 0 0 -23 -53 -33 -9 -3 -7 -2
-470 -398 -488 -411 -385 -389 -375 -377 -444 -477 -549 -606 -544 -572 0 0 0 0 0 -60 -62 -61 -459 -422 -60 -68 0 0 0 0 0 0 0 0 0 0 0 0 -1 0 -17 -4 -0
-231 -427 -445 -483 -399 -461 -412 -465 -221 -310 -302 0 0 0 0 -410 -517 -489 0 0 0 0 0 0 0 0 0 0 0 0 0 0 0 0 0 0 0 0 0 0 -6 -0 -3
0 -439 -450 -423 -419 -440 -419 -408 -457 0 0 0 -428 -586 -581 -561 -492 -1 0 0 0 0 0 0 0 0 0 0 0 0 0 0 0 0 0 0 0 0 0 0 0 -15 -7
0 -520 -445 -395 -406 -371 -343 -413 -482 -437 -504 -27 0 -45 0 0 0 0 0 0 0 0 0 0 0 0 0 0 0 0 0 0 0 0 0 0 0 0 0 0 0 0 0
0 0 -399 -286 -360 -374 -370 -477 0 0 0 0 0 0 0 0 0 0 0 0 0 0 0 0 0 0 0 0 0 0 0 0 0 0 0 0 0 0 0 0 0 0 0
0 0 0 -336 -350 -432 -306 0 0 0 0 0 0 0 0 0 0 0 0 0 0 0 0 0 0 0 0 0 0 0 0 0 0 0 0 0 0 0 0 0 0 0 0
0 0 0 -381 0 0 0 0 0 0 0 0 0 0 0 0 0 0 0 0 0 0 0 0 0 0 0 0 0 0 0 0 0 0 0 0 0 0 0 0 0 0 0
0 0 0 0 0 0 0 0 0 0 0 0 0 0 0 0 0 0 0 0 0 0 0 0 0 0 0 0 0 0 0 0 0 0 0 0 0 0 0 0 0 0 0
0 0 0 0 0 0 0 0 0 0 0 0 0 0 0 0 0 0 0 0 0 0 0 0 0 0 0 0 0 0 0 0 0 0 0 0 0 0 0 0 0 0 0
0 0 0 0 0 0 0 0 0 0 0 0 0 0 0 0 0 0 0 0 0 0 0 0 0 0 0 0 0 0 0 0 0 0 0 0 0 0 0 0 0 0 0
0 0 0 0 0 0 0 0 0 0 0 0 0 0 0 0 0 0 0 0 0 0 0 0 0 0 0 0 0 0 0 0 0 0 0 0 0 0 0 0 0 0 0
0 0 0 0 0 0 0 0 0 0 0 0 0 0 0 0 0 0 0 0 0 0 0 0 0 0 0 0 0 0 0 0 0 0 0 0 0 0 0 0 0 0 0
0 0 0 0 0 0 0 0 0 0 0 0 0 0 0 0 0 0 0 0 0 0 0 0 0 0 0 0 0 0 0 0 0 0 0 0 0 0 0 0 0 0 0
Wind_Speed
4 6 14 13 12 15 16 15 13 12 9 9 9 9 13 11 8 6 5 6 8 9 7 7 7 10 11 7 5 2 3 4 5 6 5 6 6 5 6 10 5 2 7
10 6 15 13 16 13 15 14 14 13 10 8 9 9 9 8 6 5 5 7 5 6 5 6 8 8 7 6 2 2 6 1 2 3 4 5 6 7 7 6 4 4 4
11 8 11 14 13 13 15 14 13 12 11 11 10 8 8 7 7 7 6 6 6 4 4 3 4 4 3 3 2 3 4 1 1 3 5 3 4 10 9 6 6 7 6
12 9 9 14 14 15 16 14 13 12 10 9 8 8 8 9 8 5 9 7 5 3 2 1 0 2 3 4 5 5 5 3 3 4 3 3 5 9 11 9 9 8 8
10 9 9 15 15 15 16 14 13 11 9 8 6 4 1 1 5 8 10 7 7 5 3 1 1 3 3 4 6 7 8 7 5 5 4 4 5 7 9 9 9 9 9
8 8 10 15 15 15 14 13 13 11 9 8 7 5 2 2 4 7 9 8 11 7 4 1 2 4 5 6 7 8 8 8 6 4 5 6 5 10 11 10 11 11 10
8 7 10 15 15 16 14 13 12 12 10 8 7 7 6 4 6 4 9 7 7 6 4 3 4 6 7 8 9 9 10 8 4 4 5 5 5 12 13 13 13 13 13
11 8 9 13 16 15 14 13 12 12 12 10 8 7 6 3 5 1 6 7 5 4 3 5 6 8 8 9 10 10 9 8 5 5 5 5 10 13 15 15 15 13 14
10 9 7 9 11 13 13 12 12 13 10 11 8 7 5 4 1 2 6 5 4 3 4 5 8 9 9 10 10 11 9 9 6 4 6 4 11 15 14 14 16 16 15
8 9 9 7 7 7 7 11 10 9 10 10 8 7 6 5 4 2 2 3 5 6 7 8 9 9 10 10 11 11 11 11 6 5 5 5 15 15 15 15 15 16 16
6 8 9 9 7 7 6 6 9 10 10 10 8 7 5 2 4 4 5 8 8 8 8 9 9 9 9 9 10 11 10 4 5 4 4 13 16 16 16 16 17 17 17
9 8 9 9 9 7 6 6 5 5 4 5 5 4 3 4 3 5 5 8 9 9 8 9 10 10 9 4 4 8 4 5 4 5 4 15 18 19 19 19 17 18 19
11 8 11 10 9 8 5 4 3 2 3 3 5 4 3 2 2 2 2 2 3 4 3 4 5 4 5 3 4 4 5 5 3 4 6 14 17 18 20 20 19 18 19
8 11 11 11 8 7 4 5 4 3 3 3 4 5 3 2 1 2 1 3 2 3 3 3 3 5 6 6 5 6 6 5 3 3 5 12 14 18 19 19 19 19 19
10 11 9 10 9 7 7 4 4 4 4 3 4 4 4 3 2 2 3 3 4 4 4 4 4 5 6 6 6 6 6 6 6 3 3 10 13 16 17 18 18 19 18
8 11 8 9 8 8 6 6 4 4 4 4 3 3 4 4 3 5 5 5 4 4 4 4 5 5 4 5 6 6 6 5 6 6 4 5 13 14 17 19 20 18 22
5 8 11 10 9 9 8 6 4 4 4 4 5 6 6 6 7 5 5 5 4 4 5 5 5 5 5 6 6 6 6 7 6 7 5 5 6 10 16 19 19 23 22
7 8 7 9 9 9 7 6 4 5 6 5 6 6 9 8 6 5 5 4 4 5 4 4 5 5 5 5 5 5 6 5 6 7 6 5 5 5 10 17 21 21 22
7 8 8 9 10 9 8 7 8 9 7 5 6 6 7 7 6 6 5 4 5 5 5 4 4 3 3 5 5 5 5 4 3 5 6 6 6 5 6 11 16 14 19
6 6 8 8 10 12 10 9 7 8 5 4 5 6 7 5 7 6 5 5 5 5 5 4 4 3 1 4 4 7 5 1 2 7 6 7 5 6 5 6 5 9 19
6 8 8 13 11 11 9 9 7 5 4 4 5 7 7 6 7 6 5 5 5 5 3 4 3 4 3 5 3 4 4 2 5 11 5 6 7 10 7 10 7 6 7
7 8 8 12 11 8 8 4 4 5 4 4 4 6 6 7 6 6 6 5 5 4 6 5 5 3 2 4 3 1 5 5 7 11 6 6 11 7 9 11 9 7 8
8 8 10 10 10 8 9 9 5 6 4 3 3 4 4 6 6 6 6 5 5 4 4 3 4 4 2 3 6 4 5 3 11 2 8 4 13 5 10 6 9 6 6
7 7 9 10 10 9 10 9 12 6 5 2 3 3 4 6 6 6 6 6 5 3 4 3 4 2 3 4 3 4 2 4 3 7 3 11 4 10 7 5 6 5 9
8 8 8 10 9 7 8 8 6 6 4 3 4 6 6 5 6 6 6 5 4 3 3 4 5 5 3 2 2 3 2 2 4 4 12 6 9 9 8 6 5 7 8
6 7 7 10 6 8 8 8 9 9 8 6 5 4 3 3 4 5 4 4 3 4 4 4 4 5 4 3 2 3 2 3 7 6 9 11 12 8 5 7 6 7 6
Wind_Direction
220 179 166 173 177 151 150 151 140 129 131 130 116 137 134 130 119 117 130 87 91 80 38 339 17 36 46 74 107 119 146 100 35 14 329 297 289 261 244 243 171 272 240
152 180 158 165 166 163 157 149 139 134 134 135 134 130 141 124 134 130 116 104 87 73 25 352 351 8 38 35 33 235 225 130 76 309 297 292 294 269 252 214 191 226 258
151 167 159 171 174 168 156 150 146 143 141 138 149 147 166 174 128 130 123 112 93 73 50 30 346 345 335 331 324 319 342 72 192 274 291 299 273 263 246 208 243 250 258
154 168 166 173 174 161 155 156 154 151 151 157 173 163 173 180 188 166 147 141 147 148 125 1 2 338 294 302 293 297 324 354 246 265 291 282 291 278 229 213 244 249 240
160 170 171 172 173 165 161 163 158 157 161 166 181 127 36 214 218 176 164 153 165 171 169 229 327 320 323 318 311 307 288 284 257 273 288 290 283 275 228 246 254 258 255
163 169 173 172 172 167 163 166 165 164 168 173 185 163 137 16 307 209 198 178 169 172 195 212 284 294 294 293 293 289 285 285 262 273 289 289 294 273 269 243 247 256 259
169 170 169 172 168 162 166 169 172 171 176 174 180 174 149 65 20 166 189 178 168 171 211 254 309 318 309 297 295 281 280 283 273 263 274 280 276 280 276 270 263 262 262
163 166 171 170 164 164 170 174 176 180 180 172 177 178 167 127 42 141 175 159 179 216 252 288 295 302 306 301 297 295 299 291 266 263 262 267 276 282 275 273 271 264 269
158 153 161 167 168 170 174 176 186 194 182 156 167 176 171 167 146 52 172 183 208 255 273 288 292 292 293 292 292 290 289 278 267 254 265 252 266 279 277 273 273 273 270
166 165 166 169 170 168 169 183 185 179 163 159 162 158 171 195 221 228 183 232 239 251 269 281 280 280 282 284 285 282 276 272 260 253 248 254 274 276 280 282 281 275 274
186 179 171 174 178 175 173 186 180 179 166 170 174 182 177 190 223 224 224 237 226 247 260 267 267 270 273 273 275 276 279 256 258 254 248 258 269 278 281 279 281 278 276
189 196 183 178 184 173 181 175 172 175 168 177 187 197 174 197 231 208 209 224 236 247 258 268 279 281 279 264 269 280 270 268 252 258 247 268 282 285 283 284 280 275 270
195 181 188 184 184 170 177 162 160 175 171 190 198 197 192 179 214 199 231 279 277 295 285 292 290 285 280 273 283 282 286 289 268 260 264 268 285 296 295 298 294 291 288
192 195 179 188 178 173 157 164 160 176 179 195 211 206 170 186 165 262 254 258 261 269 282 312 350 11 19 10 0 338 325 323 311 294 290 287 300 315 311 312 305 296 284
195 193 178 169 172 156 150 135 158 172 163 190 171 175 161 123 111 75 47 40 25 20 31 40 27 22 13 358 352 358 347 344 339 339 316 312 321 332 334 339 337 329 308
191 186 164 158 149 146 141 143 130 143 148 146 128 127 107 108 97 83 61 43 37 36 40 42 33 22 9 358 352 348 333 337 341 337 330 341 346 352 3 8 4 6 14
192 157 161 150 140 139 142 129 133 123 111 89 93 74 70 72 77 79 71 48 26 29 39 35 22 22 21 360 349 338 337 342 341 346 355 352 349 349 5 6 15 8 12
132 147 147 149 142 134 130 127 112 88 93 88 85 86 76 76 82 75 68 48 31 36 35 37 21 10 10 1 331 323 326 341 349 1 351 353 350 1 354 6 6 6 4
139 132 133 138 141 121 102 101 99 95 90 91 78 84 79 76 71 75 65 48 43 41 32 22 18 35 11 346 320 315 315 338 10 358 348 348 346 358 347 0 353 356 357
141 139 123 131 119 113 110 105 94 90 77 75 84 84 82 75 71 75 62 53 46 48 28 20 14 349 21 327 323 309 303 329 38 10 350 350 352 358 343 341 350 345 357
123 125 134 128 132 123 125 123 115 115 94 71 75 82 81 77 69 67 59 48 40 53 38 26 350 357 336 342 348 314 320 351 40 356 358 349 360 348 352 355 349 346 343
134 122 122 128 130 125 127 111 117 125 79 93 82 73 73 72 69 71 67 53 42 41 27 24 31 345 324 15 340 330 347 331 355 325 338 348 351 347 348 344 330 341 344
131 133 130 131 127 121 121 113 92 90 70 73 59 71 56 74 68 68 64 62 49 47 31 8 12 37 352 317 13 72 351 312 322 316 312 334 339 331 326 320 317 324 338
147 129 128 132 129 134 137 132 141 130 132 158 124 104 80 68 68 65 65 59 51 38 29 349 12 15 17 12 346 34 188 239 314 320 327 316 305 316 299 301 305 315 329
133 133 134 129 129 131 124 127 124 115 109 109 103 105 87 66 66 63 62 56 46 31 13 14 7 12 21 5 10 331 320 252 238 254 301 313 307 309 302 296 302 309 312
121 119 126 126 121 129 126 128 131 130 128 117 123 115 110 83 58 49 55 52 40 21 5 354 356 5 2 355 327 319 284 298 311 301 297 302 297 293 276 301 296 304 290